Location: Lombard
(41.8800°N, 88.0080°W)
Time: 04:50:40
(UTC-05:00)

BEESAT - Pass Details

Date: 24 May 2022
Orbit: 698 x 708 km, 98.6° (Epoch: 26 June)

Event Time Altitude Azimuth Distance (km) Brightness Sun altitude
Rises 22:19:15 0° 359° (N) 3,093 ? -18.3°
Reaches altitude 10° 22:21:57 10° 344° (NNW) 2,170 ? -18.6°
Maximum altitude 22:25:30 22° 296° (WNW) 1,530 ? -19.0°
Drops below altitude 10° 22:29:02 10° 247° (WSW) 2,158 ? -19.3°
Sets 22:31:43 0° 232° (SW) 3,071 ? -19.6°
